Location: Iesi
(43.5167°N, 13.2333°E)
Time: 18:36:36
(UTC+00:00)

Cosmos 2082 Rocket - Pass Details

Date: 08 August 2020
Orbit: 835 x 852 km, 71.0° (Epoch: 23 September)

Event Time Altitude Azimuth Distance (km) Brightness Sun altitude
Rises 20:01:04 0° 195° (SSW) 3,400 5.1 -16.3°
Reaches altitude 10° 20:03:31 10° 193° (SSW) 2,467 4.3 -16.6°
Maximum altitude 20:09:08 69° 111° (ESE) 905 2.1 -17.3°
Drops below altitude 10° 20:14:47 10° 29° (NNE) 2,473 4.8 -18.1°
Sets 20:17:14 0° 28° (NNE) 3,409 5.6 -18.4°
